Погода Дно

Погода Дно : погода сейчас, прогноз погоды и архив. Всё, что Вы хотите узнать о погоде Дно!

Поиск расширенной информации на нашем сайте:

Другие новости

Новости СМИ2

Главная страница сайта

Новости сайта

03.07.2017

Напоминаем, что на нашем специализированном сайте Метеоцентр.Азия вы можете получить высокодетализированные автоматические прогнозы погоды по пунктам России, СНГ и мира в авиационном формате (включающие направление и скорость ветра, видимость, явления погоды, количество и форму облачности, нижнюю и верхнюю границу облачности).

Рекомендуем: интим магазин в йошкар оле

Погода Дно - сегодня

Время (UTC), дата Ветер
(°,м/с) 
Видим.   Явления Облачность Т
(°С)
Тd
(°С)
f(%) Тe
(°С)
Pmin
(гПа)
dP
(гПа)
Po
(мм)
O2
(г/м3)
Тmin Tmax R s Состояние
почвы
15 19.10.17 280 (З) н/о    н/о 
+4.3 +2.8 90 +5  1018.4  1.1  758  300           
18 19.10.17 тихо ()   20000 м    ясно 
-1.1 -1.4 98 -1  1019.9  1.4  759  307    +9.7  0.4     
21 19.10.17 тихо ()   н/о    н/о 
-2.4 -2.6 99 -2  1020.8  0.8  759  309           
00 20.10.17 210 (ЮЗ) н/о    н/о 
+0.2 -0 99 +1  1020.9  0.2  759  306           
03 20.10.17 260 (З) н/о    н/о 
-1.3 -1.5 99 -1  1021.7  0.7  760  308  -2.5         
06 20.10.17 270 (З) 0200 м  туман  ?/?  
-0.3 -0.4 99 -1  1022.9  1.2  761  307  -2.5         
09 20.10.17 240 (ЮЗ) н/о    н/о 
+1.8 +1.6 99 +3  1023.8  762  305           
12 20.10.17 260 (З) н/о    н/о 
+6.2 +5.6 96 +7  1023.2  -0.5  761  299           
15 20.10.17 230 (ЮЗ) н/о    н/о 
+4.1 +2.9 92 +5  1023.1  -0.2  761  302           
18 20.10.17 270 (З) 20000 м    10/10 600 м 
[Sc]
+3.6 +2.8 94 +4  1023.4  0.2  761  302    +7.1     
21 20.10.17 260 (З) н/о    н/о 
-1.3 -1.6 98 -1  1023.9  0.4  762  309           
00 21.10.17 тихо ()   н/о    н/о 
-2.9 -3 99 -3  1024.1  0.1  762  311           
03 21.10.17 тихо ()   н/о    н/о 
-1.4 -1.6 99 -1  1024.3  0.3  762  309  -4.2         
06 21.10.17 тихо ()   0200 м  туман  ?/?  
-1.8 -2 99 -2  1024.6  0.3  762  309  -4.2         
09 21.10.17 тихо ()   н/о    н/о 
-0.4 -0.6 99 -0  1024.8  0.2  762  308           
12 21.10.17 280 (З) н/о    н/о 
+2.7 +1 89 +3  1023.7  0.2  762  304           
15 21.10.17 310 (СЗ) н/о    н/о 
-0.6 -1.2 96 1023.4  -0.3  761  308           
18 21.10.17 280 (З) 0200 м  туман  ?/?  
-2.3 -2.5 99 -2  1023.6  0.1  761  310    +2.9       
21 21.10.17 тихо ()   н/о    н/о 
-3.6 -3.9 98 -4  1023.5  0.1  761  311           
00 22.10.17 тихо ()   н/о    н/о 
-5.4 -5.8 97 -5  1023  -0.6  761  313           
03 22.10.17 240 (ЮЗ) н/о    н/о 
-2.3 -2.5 99 -2  1021.9  -0.6  760  309  -5.6         
06 22.10.17 250 (З) 20000 м    10/0 средняя 
[Ac und]
-1.4 -2.4 93 -2  1021.1  -0.8  760  308  -5.6         
09 22.10.17 250 (З) н/о    н/о 
-1.4 -2.4 93 -3  1021.1  -0.5  759  308           
12 22.10.17 250 (З) н/о    н/о 
+1.5 -0.9 84 1019.5  -1  758  304           
15 22.10.17 250 (З) н/о    н/о 
+1.5 -0.4 87 +2  1018.5  -0.9  758  304           
Время (UTC), дата Ветер
(°,м/с) 
Видим.   Явления Облачность Т
(°С)
Тd
(°С)
f(%) Тe
(°С)
Pmin
(гПа)
dP
(гПа)
Po
(мм)
O2
(г/м3)
Тmin Tmax R s Состояние
почвы

Для получения пояснительной информации подведите курсор к названию столбца.

ПОГОДА Дно - архив

Всё, что Вы хотите узнать о погоде Дно - удобно и подробно!

Выберите нужную дату (начиная с 1 января 2015* года) и нажмите кнопку "Найти".
Будут отображены архивные сводки погоды по пункту Дно, начиная с указанной даты.


Отображать данные в формате CSV (для использования в таблицах Excel)


Внимание! Наш архив погоды предназначен исключительно для личного некоммерческого использования в познавательных целях. Если Вам необходимы официальные справки о состоянии погоды (для производственных, юридических, коммерческих и т.п. целей), обращайтесь в органы Росгидромета.

*Примечание: данная дата относится к архиву по метеостанциям СССР (Россия, СНГ, Балтия).
Архив по метеостанциям Зарубежной Европы и Азии (кроме Китая) хранится 10 дней, по другим регионам земного шара (Китай, Африка, Америка, Австралия, Океания) - 1 день.

Дно - район местоположения метеостанции


Название, широта, долгота, высота метеостанции:
Дно 57.8°ш. 29.9°д. 71 м над ур. моря [Российская Федерация]

Дополнительная информация

В oтличие oт бoльшинства пoгoдных сайтoв мы публикуем пoдрoбную метеoинфoрмацию в детальнoм прoфессиoнальнoм фoрмате.

Характеристики температуры и влажнoсти вoздуха измеряются на высoте 2 м в тени вдали oт зданий и деревьев.
Скoрoсть ветра измеряется на высoте 10 м (на урoвне рoста челoвека скoрoсть ветра ниже в 1.5-2 раза). Если метеoстанция нахoдится в гoрoде или в лесу, тo скoрoсть ветра занижена на 2-4 м/с пo сравнению с oткрытым местoм. Скoрoсть ветра над акватoриями крупных рек и oзёр, а также на вершинах хoлмoв на 2-5 м/с выше, чем в oбычных услoвиях.
Атмoсфернoе давление в разных тoчках местнoсти мoжет значительнo oтличаться oт давления на метеoстанции, в зависимoсти oт услoвий рельефа (при пoдъёме на 10 м давление пoнижается примернo на 1 мм рт.ст.).